Location: Camp Creek
(33.9000°N, 111.8167°W)
Time: 00:17:13
(UTC-07:00)

DELTA 2 R/B (1) - Visible Passes

Search period start: 18 April 2015 00:00
Search period end: 28 April 2015 00:00
Orbit: 791 x 803 km, 39.6° (Epoch: 16 April)

Date Brightness Start Highest point End Pass type
(mag) Time Alt. Az. Time Alt. Az. Time Alt. Az.
18 Apr 4.8 02:45:17 38° NE 02:45:17 38° NE 02:48:46 10° ENE visible
18 Apr 4.4 04:26:02 17° WNW 04:30:09 46° N 04:35:31 10° ENE visible
19 Apr 5.6 02:15:58 23° ENE 02:15:58 23° ENE 02:18:03 10° ENE visible
19 Apr 4.4 03:56:45 27° WNW 03:59:24 46° N 04:04:46 10° ENE visible
20 Apr 6.2 01:46:41 13° ENE 01:46:41 13° ENE 01:47:21 10° ENE visible
20 Apr 4.3 03:27:27 40° NW 03:28:39 47° N 03:34:02 10° ENE visible
20 Apr 4.0 05:10:05 10° WNW 05:15:38 64° NNE 05:21:10 10° E visible
21 Apr 4.4 02:58:13 46° N 02:58:13 46° N 03:03:17 10° ENE visible
21 Apr 4.0 04:39:22 10° WNW 04:44:54 61° NNE 04:50:25 10° E visible
22 Apr 5.0 02:29:01 35° NE 02:29:01 35° NE 02:32:33 10° ENE visible
22 Apr 4.0 04:09:47 16° WNW 04:14:10 59° NNE 04:19:41 10° E visible
23 Apr 5.7 01:59:54 21° ENE 01:59:54 21° ENE 02:01:49 10° ENE visible
23 Apr 4.1 03:40:41 29° NW 03:43:26 57° NNE 03:48:56 10° E visible
24 Apr 6.3 01:30:55 11° ENE 01:30:55 11° ENE 01:31:05 10° ENE visible
24 Apr 4.1 03:11:43 48° NNW 03:12:42 55° NNE 03:18:11 10° E visible
24 Apr 3.6 04:53:46 10° WNW 04:59:18 65° SSW 05:04:48 10° SE visible
25 Apr 4.4 02:42:54 48° NE 02:42:54 48° NE 02:47:26 10° E visible
25 Apr 3.5 04:23:43 14° WNW 04:28:36 70° SSW 04:34:08 10° SE visible
25 Apr 5.6 20:47:21 10° S 20:47:49 12° S 20:47:49 12° S visible
26 Apr 5.4 02:14:20 25° ENE 02:14:20 25° ENE 02:16:41 10° E visible
26 Apr 3.4 03:55:09 31° WNW 03:57:54 75° SSW 04:03:28 10° ESE visible
26 Apr 4.9 20:16:57 10° S 20:20:35 19° SE 20:20:35 19° SE visible
26 Apr 6.0 22:01:10 10° WSW 22:01:30 12° WSW 22:01:30 12° WSW visible
27 Apr 3.4 03:26:52 76° WSW 03:27:12 80° SSW 03:32:47 10° ESE visible
27 Apr 4.8 05:08:59 10° W 05:13:14 22° SW 05:17:21 10° S visible
27 Apr 5.0 19:46:35 10° S 19:50:06 18° SE 19:53:16 12° ESE visible
27 Apr 4.3 21:30:30 10° SW 21:34:10 41° SW 21:34:10 41° SW visible
